Volver al catálogo

STARLINK-30952

ActivoComunicacionesVLEO
NORAD 58405·PAYLOAD·🇺🇸 United States

Lanzado Nov 22, 2023 desde Cape Canaveral Space Force Station

Loading…

Próximos Pases (próximas 24 horas)

TLE

ActualizadoSource: CelesTrak SupGP

Época: Sep 14, 2026, 21:17 UTC

1 58405C 23180D   26257.88729167  .00107400  00000+0  38900-2 0  2576
2 58405  43.0037  64.1779 0001486 281.1220 308.7624 15.27525071    16

Sigue STARLINK-30952 en tiempo real con AllMySat

Download on the App Store